Temp
-6 -6 -6 -6 -6 -6 -6 -6 -7 -7 -7 -7 -7 -7 -7 -7 -7 -7 -7 -6 -6 -6 -6 -6 -6 -6 -5 -6 -6 -7 -6 -6 -6 -6 -6 -7 -7 -7 -6 -6 -6 -6 -6 -6 -7 -7 -7 -7 -7
-6 -6 -7 -6 -7 -5 -6 -7 -6 -6 -7 -7 -7 -8 -7 -7 -7 -7 -7 -6 -6 -6 -6 -6 -6 -6 -6 -6 -6 -7 -7 -6 -6 -6 -7 -7 -7 -7 -6 -6 -7 -7 -7 -7 -7 -7 -7 -7 -7
-6 -6 -6 -7 -7 -6 -6 -7 -7 -6 -7 -8 -7 -8 -7 -7 -7 -7 -7 -8 -7 -7 -7 -7 -6 -6 -6 -7 -7 -6 -6 -7 -7 -7 -7 -7 -7 -7 -7 -7 -7 -7 -7 -7 -7 -7 -7 -7 -7
-6 -6 -5 -6 -6 -6 -6 -7 -8 -7 -7 -7 -8 -7 -7 -7 -7 -7 -8 -8 -8 -7 -8 -7 -7 -7 -7 -7 -7 -7 -7 -7 -7 -7 -7 -7 -7 -7 -7 -7 -7 -7 -7 -6 -7 -7 -7 -7 -7
-6 -6 -6 -6 -6 -7 -6 -7 -7 -7 -7 -7 -7 -7 -7 -7 -7 -7 -8 -7 -8 -7 -8 -8 -8 -8 -8 -8 -7 -7 -7 -7 -8 -8 -7 -7 -7 -7 -7 -7 -7 -6 -6 -6 -6 -7 -7 -7 -7
-6 -5 -6 -6 -6 -6 -6 -7 -6 -7 -6 -6 -7 -7 -7 -7 -8 -7 -7 -8 -8 -7 -8 -8 -8 -8 -8 -8 -8 -7 -7 -7 -8 -8 -8 -8 -8 -8 -7 -7 -7 -7 -6 -7 -7 -7 -7 -7 -7
-6 -6 -6 -6 -6 -6 -6 -6 -5 -6 -6 -7 -7 -7 -7 -7 -8 -7 -7 -7 -8 -8 -8 -8 -8 -8 -8 -8 -8 -8 -7 -8 -8 -8 -8 -8 -7 -8 -8 -8 -8 -7 -7 -7 -7 -7 -7 -7 -7
-6 -6 -6 -6 -6 -6 -6 -6 -6 -6 -7 -7 -6 -7 -7 -7 -7 -7 -8 -8 -8 -8 -8 -8 -8 -8 -8 -8 -8 -8 -8 -8 -8 -8 -8 -8 -7 -7 -7 -8 -8 -7 -8 -7 -7 -7 -7 -7 -7
-6 -6 -6 -6 -6 -6 -6 -6 -6 -6 -7 -6 -6 -7 -7 -7 -8 -8 -8 -8 -8 -8 -8 -8 -8 -8 -8 -8 -8 -8 -8 -8 -8 -8 -8 -8 -7 -7 -8 -8 -8 -8 -8 -8 -7 -7 -8 -7 -7
-6 -6 -6 -6 -6 -6 -6 -6 -6 -6 -6 -6 -7 -6 -6 -6 -7 -8 -8 -7 -8 -8 -8 -8 -7 -8 -8 -8 -8 -8 -8 -8 -8 -8 -8 -8 -8 -8 -8 -9 -8 -8 -8 -8 -8 -8 -7 -7 -7
-6 -6 -7 -6 -6 -6 -6 -6 -6 -6 -6 -6 -7 -7 -6 -7 -7 -7 -8 -8 -8 -8 -8 -7 -8 -8 -8 -8 -8 -8 -8 -8 -8 -8 -8 -9 -9 -8 -8 -8 -8 -8 -7 -7 -8 -8 -7 -7 -7
-7 -7 -8 -7 -6 -6 -6 -6 -5 -7 -6 -7 -6 -7 -6 -6 -7 -8 -8 -8 -8 -8 -8 -8 -8 -8 -8 -8 -8 -8 -8 -8 -8 -8 -9 -9 -9 -8 -8 -8 -8 -8 -8 -8 -7 -7 -8 -8 -8
-6 -6 -6 -7 -6 -6 -6 -6 -6 -6 -6 -7 -7 -6 -6 -5 -6 -7 -7 -8 -8 -7 -8 -8 -8 -8 -8 -9 -8 -8 -9 -8 -8 -9 -8 -8 -8 -8 -8 -8 -8 -8 -8 -8 -7 -7 -7 -8 -8
-6 -5 -5 -7 -6 -6 -7 -6 -7 -6 -7 -6 -6 -7 -7 -6 -7 -7 -8 -8 -7 -8 -8 -8 -8 -8 -8 -8 -8 -8 -8 -8 -8 -8 -8 -8 -8 -8 -8 -8 -8 -8 -8 -7 -7 -7 -7 -8 -8
-6 -5 -6 -7 -6 -7 -6 -5 -6 -6 -6 -6 -6 -6 -7 -6 -6 -6 -7 -7 -8 -8 -8 -8 -7 -7 -8 -8 -7 -8 -8 -8 -8 -8 -8 -8 -8 -8 -8 -7 -7 -8 -7 -7 -7 -7 -7 -8 -8
-6 -6 -7 -6 -7 -7 -6 -5 -6 -5 -6 -6 -7 -6 -7 -6 -7 -7 -7 -7 -8 -7 -8 -8 -7 -7 -7 -7 -7 -8 -8 -8 -8 -8 -8 -8 -8 -8 -8 -7 -7 -8 -8 -7 -7 -7 -7 -7 -7
-8 -7 -7 -6 -7 -6 -6 -6 -5 -5 -5 -6 -6 -6 -7 -7 -6 -6 -7 -7 -8 -7 -7 -7 -6 -7 -7 -7 -7 -8 -8 -8 -8 -8 -8 -7 -8 -8 -8 -8 -8 -8 -8 -7 -7 -8 -7 -7 -7
-7 -7 -7 -7 -7 -6 -7 -6 -6 -6 -6 -6 -6 -5 -6 -7 -6 -6 -6 -7 -7 -7 -6 -7 -6 -7 -7 -7 -7 -8 -8 -8 -8 -8 -8 -8 -8 -8 -8 -7 -7 -8 -7 -7 -7 -7 -7 -7 -7
-9 -9 -8 -8 -7 -7 -7 -7 -6 -6 -5 -6 -6 -6 -6 -6 -6 -6 -7 -6 -7 -7 -6 -7 -7 -7 -7 -7 -7 -7 -8 -8 -8 -8 -8 -8 -8 -7 -7 -8 -7 -7 -8 -7 -7 -7 -7 -7 -7
-9 -9 -9 -8 -7 -8 -8 -7 -7 -6 -6 -6 -6 -6 -5 -6 -6 -6 -7 -6 -7 -7 -7 -7 -7 -7 -7 -7 -7 -7 -8 -8 -8 -7 -8 -7 -7 -8 -7 -7 -7 -7 -7 -8 -7 -7 -7 -7 -7
-8 -9 -9 -8 -8 -8 -8 -7 -7 -7 -6 -6 -6 -6 -5 -6 -6 -5 -6 -6 -6 -7 -7 -7 -7 -7 -7 -7 -7 -8 -8 -7 -7 -7 -8 -7 -8 -7 -7 -7 -7 -7 -7 -7 -7 -7 -7 -7 -7
-10 -10 -9 -8 -9 -9 -8 -8 -8 -7 -7 -6 -6 -6 -6 -6 -6 -6 -6 -6 -6 -7 -7 -6 -6 -7 -7 -7 -7 -7 -8 -8 -7 -7 -7 -7 -8 -8 -8 -7 -7 -7 -8 -7 -7 -7 -7 -7 -7
-11 -10 -10 -9 -9 -9 -9 -7 -7 -7 -7 -7 -7 -6 -7 -6 -7 -6 -6 -6 -6 -7 -7 -7 -6 -6 -7 -7 -7 -7 -7 -8 -7 -7 -7 -7 -7 -8 -7 -6 -6 -7 -7 -7 -7 -7 -7 -7 -7
-10 -11 -11 -11 -10 -10 -10 -9 -7 -7 -7 -7 -7 -6 -6 -7 -6 -7 -6 -6 -5 -6 -7 -6 -6 -6 -7 -7 -7 -7 -7 -7 -8 -7 -7 -7 -7 -7 -7 -6 -7 -7 -7 -7 -7 -7 -7 -7 -7
-11 -11 -11 -10 -11 -10 -10 -10 -8 -8 -8 -7 -6 -6 -5 -5 -7 -6 -5 -6 -6 -6 -6 -6 -6 -7 -6 -7 -7 -7 -7 -7 -7 -7 -7 -7 -6 -7 -7 -7 -7 -6 -6 -7 -7 -7 -7 -7 -7
-9 -11 -10 -10 -11 -10 -10 -10 -9 -8 -7 -7 -6 -6 -5 -4 -5 -5 -5 -6 -6 -6 -6 -7 -7 -6 -7 -6 -7 -7 -7 -7 -7 -7 -7 -7 -7 -7 -7 -7 -7 -7 -7 -7 -7 -7 -6 -7 -6
-10 -10 -11 -11 -11 -10 -10 -10 -9 -9 -8 -8 -7 -6 -6 -5 -5 -6 -6 -7 -7 -7 -6 -6 -6 -6 -6 -7 -6 -7 -7 -7 -7 -7 -7 -7 -7 -7 -7 -7 -7 -6 -6 -6 -6 -6 -6 -7 -6
-9 -11 -11 -10 -10 -10 -9 -9 -9 -9 -8 -8 -8 -7 -7 -6 -6 -5 -6 -6 -7 -7 -6 -6 -6 -6 -6 -6 -7 -7 -7 -7 -7 -7 -7 -7 -6 -6 -6 -6 -6 -6 -6 -6 -6 -6 -6 -6 -6
-10 -10 -9 -9 -10 -9 -9 -9 -10 -9 -9 -9 -8 -8 -7 -7 -6 -6 -5 -6 -8 -7 -6 -7 -7 -6 -6 -6 -7 -7 -7 -7 -7 -7 -7 -7 -7 -7 -6 -6 -6 -6 -6 -6 -6 -6 -6 -6 -6
-11 -11 -10 -10 -10 -10 -10 -9 -10 -10 -9 -9 -9 -8 -8 -8 -6 -7 -7 -6 -7 -7 -7 -7 -7 -7 -6 -6 -6 -7 -7 -7 -7 -7 -7 -7 -7 -6 -7 -6 -6 -6 -6 -6 -6 -6 -6 -6 -6
Height
5891 5888 5888 5889 5892 5889 5886 5886 5886 5886 5887 5888 5889 5888 5887 5885 5886 5888 5886 5884 5885 5885 5885 5884 5883 5883 5883 5885 5887 5889 5892 5895 5896 5897 5900 5905 5906 5907 5909 5911 5911 5911 5911 5912 5913 5913 5913 5913 5912
5891 5889 5889 5889 5891 5889 5889 5886 5885 5887 5888 5888 5887 5888 5887 5885 5886 5887 5886 5885 5885 5884 5885 5884 5884 5885 5884 5885 5886 5890 5893 5895 5898 5900 5903 5904 5907 5909 5910 5911 5912 5912 5912 5912 5913 5915 5914 5916 5915
5891 5890 5891 5891 5891 5889 5888 5889 5884 5886 5889 5888 5887 5886 5887 5887 5887 5888 5887 5886 5885 5884 5884 5886 5886 5886 5886 5888 5889 5891 5892 5894 5898 5901 5904 5905 5906 5909 5911 5912 5912 5913 5913 5912 5915 5917 5917 5918 5918
5890 5891 5891 5891 5891 5890 5888 5886 5887 5886 5888 5890 5890 5891 5892 5890 5889 5889 5888 5888 5887 5886 5885 5886 5887 5888 5889 5890 5892 5893 5895 5898 5900 5903 5905 5908 5909 5911 5911 5913 5913 5913 5914 5914 5917 5919 5920 5919 5921
5887 5888 5889 5887 5889 5888 5889 5888 5889 5890 5891 5892 5892 5892 5891 5890 5887 5890 5889 5888 5889 5888 5887 5887 5889 5891 5893 5893 5896 5897 5899 5900 5902 5904 5906 5909 5911 5912 5912 5914 5914 5915 5916 5918 5920 5920 5920 5921 5922
5890 5889 5889 5889 5889 5886 5887 5887 5889 5889 5891 5891 5892 5894 5892 5889 5887 5888 5888 5888 5888 5888 5888 5889 5890 5892 5893 5895 5898 5899 5902 5902 5903 5905 5908 5910 5912 5913 5915 5915 5916 5917 5918 5920 5922 5922 5923 5924 5925
5890 5890 5889 5888 5880 5887 5888 5888 5889 5887 5889 5891 5889 5890 5892 5891 5889 5889 5887 5886 5888 5889 5889 5891 5892 5894 5896 5897 5900 5903 5904 5904 5905 5906 5909 5911 5913 5914 5915 5918 5918 5919 5920 5923 5923 5924 5925 5927 5928
5891 5889 5889 5888 5884 5883 5889 5890 5889 5889 5888 5888 5889 5888 5889 5890 5887 5887 5888 5889 5891 5892 5893 5893 5895 5897 5898 5899 5902 5905 5905 5907 5907 5908 5910 5912 5913 5915 5916 5919 5920 5921 5923 5925 5924 5926 5927 5931 5931
5889 5890 5889 5884 5886 5888 5890 5891 5893 5890 5889 5887 5890 5890 5891 5890 5890 5889 5890 5893 5894 5895 5895 5895 5896 5898 5899 5901 5904 5906 5906 5908 5910 5910 5912 5913 5914 5915 5915 5918 5920 5921 5925 5927 5928 5928 5929 5932 5932
5888 5889 5888 5888 5890 5890 5891 5889 5891 5889 5888 5887 5890 5888 5891 5892 5893 5894 5894 5893 5892 5894 5893 5894 5896 5897 5899 5902 5904 5906 5907 5908 5910 5913 5914 5914 5915 5916 5916 5918 5921 5923 5926 5927 5928 5930 5932 5933 5934
5888 5889 5887 5888 5888 5886 5884 5887 5890 5891 5890 5888 5890 5890 5890 5892 5892 5893 5894 5892 5893 5895 5893 5894 5895 5896 5901 5904 5905 5906 5908 5909 5911 5913 5916 5916 5918 5919 5920 5921 5923 5926 5928 5928 5930 5932 5933 5935 5936
5888 5888 5889 5889 5888 5883 5877 5887 5890 5889 5891 5890 5889 5890 5891 5892 5893 5893 5895 5896 5893 5892 5893 5892 5894 5897 5900 5903 5905 5906 5907 5910 5912 5915 5917 5918 5919 5921 5922 5923 5925 5928 5930 5932 5934 5934 5935 5937 5937
5894 5890 5891 5892 5889 5887 5885 5888 5889 5890 5889 5889 5891 5890 5890 5890 5893 5896 5895 5893 5893 5892 5891 5891 5892 5895 5898 5901 5904 5906 5908 5911 5914 5917 5918 5919 5920 5924 5926 5928 5929 5928 5930 5933 5935 5936 5938 5938 5940
5890 5889 5889 5893 5891 5890 5888 5889 5889 5889 5889 5890 5892 5892 5890 5889 5891 5895 5894 5893 5893 5891 5891 5892 5893 5895 5897 5900 5903 5906 5908 5913 5915 5918 5919 5919 5922 5925 5927 5928 5930 5930 5931 5933 5934 5936 5939 5939 5940
5889 5891 5890 5893 5894 5893 5893 5893 5891 5889 5887 5886 5890 5892 5892 5892 5893 5896 5897 5895 5894 5894 5892 5893 5892 5894 5897 5900 5902 5905 5910 5913 5915 5918 5919 5920 5922 5926 5931 5932 5935 5935 5935 5937 5936 5937 5937 5940 5941
5887 5889 5890 5890 5889 5892 5894 5894 5891 5888 5885 5889 5889 5890 5893 5894 5896 5898 5898 5897 5896 5894 5894 5895 5896 5896 5899 5900 5903 5907 5911 5914 5916 5919 5920 5921 5926 5929 5932 5935 5937 5937 5937 5940 5940 5941 5938 5940 5943
5886 5887 5889 5891 5890 5890 5891 5891 5890 5888 5888 5888 5889 5891 5893 5894 5895 5899 5900 5898 5895 5895 5896 5896 5898 5898 5901 5903 5906 5909 5912 5914 5916 5920 5922 5925 5927 5931 5934 5937 5937 5938 5939 5941 5942 5944 5943 5944 5947
5885 5886 5888 5889 5891 5890 5889 5891 5889 5889 5889 5890 5890 5891 5892 5894 5896 5899 5898 5898 5896 5897 5898 5898 5900 5900 5903 5906 5908 5910 5913 5915 5917 5921 5923 5925 5928 5931 5935 5936 5938 5940 5943 5943 5943 5946 5948 5950 5949
5881 5882 5886 5888 5890 5889 5889 5890 5890 5890 5891 5890 5889 5890 5893 5894 5895 5897 5898 5900 5898 5896 5898 5899 5901 5904 5905 5907 5910 5912 5914 5915 5918 5920 5923 5926 5929 5932 5935 5937 5938 5942 5943 5944 5945 5946 5949 5950 5951
5876 5877 5881 5885 5888 5887 5887 5889 5890 5889 5890 5892 5889 5889 5891 5894 5894 5897 5899 5902 5899 5899 5900 5899 5901 5905 5906 5908 5910 5912 5913 5915 5919 5920 5922 5926 5929 5931 5934 5937 5939 5943 5943 5945 5946 5947 5950 5951 5953
5873 5876 5878 5880 5885 5886 5889 5889 5888 5889 5891 5892 5891 5890 5890 5893 5895 5897 5897 5901 5903 5902 5901 5903 5904 5904 5906 5908 5910 5912 5914 5917 5920 5920 5921 5925 5929 5931 5935 5937 5939 5943 5945 5945 5948 5946 5950 5952 5953
5871 5871 5876 5876 5880 5882 5884 5887 5886 5887 5889 5890 5891 5891 5889 5889 5893 5896 5896 5898 5903 5903 5902 5903 5903 5903 5905 5907 5910 5913 5914 5916 5918 5919 5921 5925 5930 5932 5933 5937 5939 5944 5945 5946 5947 5946 5949 5953 5953
5869 5870 5872 5871 5877 5881 5877 5880 5886 5887 5887 5887 5886 5887 5887 5885 5889 5893 5896 5897 5900 5902 5903 5903 5904 5903 5906 5909 5912 5915 5915 5916 5919 5920 5922 5926 5929 5931 5932 5936 5941 5943 5944 5945 5948 5946 5947 5951 5951
5866 5866 5868 5870 5872 5876 5875 5875 5879 5880 5881 5880 5880 5881 5883 5882 5881 5888 5894 5897 5899 5901 5902 5903 5903 5904 5906 5909 5913 5915 5915 5916 5918 5920 5922 5925 5928 5932 5931 5935 5939 5942 5942 5944 5947 5945 5948 5949 5950
5864 5866 5866 5869 5868 5871 5872 5872 5874 5877 5879 5880 5879 5878 5878 5877 5876 5882 5889 5894 5896 5898 5901 5902 5904 5903 5906 5909 5912 5914 5915 5916 5918 5920 5922 5924 5926 5929 5932 5934 5937 5940 5941 5943 5945 5945 5946 5948 5950
5859 5861 5863 5865 5865 5867 5868 5869 5871 5871 5872 5873 5876 5876 5876 5874 5876 5880 5885 5890 5893 5896 5900 5900 5903 5903 5904 5907 5911 5913 5915 5917 5920 5922 5922 5924 5926 5928 5929 5933 5937 5938 5941 5943 5944 5945 5945 5947 5949
5857 5859 5861 5859 5861 5862 5864 5867 5866 5867 5866 5867 5870 5872 5874 5873 5873 5877 5881 5885 5891 5894 5896 5899 5901 5903 5903 5905 5909 5913 5914 5916 5919 5922 5924 5925 5925 5927 5929 5930 5932 5936 5937 5940 5942 5943 5945 5945 5946
5856 5857 5857 5857 5857 5858 5859 5861 5863 5863 5863 5864 5865 5868 5870 5871 5873 5871 5873 5880 5886 5888 5891 5896 5899 5899 5898 5901 5904 5910 5914 5915 5917 5919 5923 5925 5927 5928 5930 5930 5933 5936 5937 5938 5939 5941 5943 5944 5945
5854 5853 5854 5855 5855 5855 5856 5858 5858 5857 5858 5859 5859 5861 5863 5866 5868 5870 5868 5873 5880 5884 5888 5891 5894 5897 5896 5897 5900 5903 5909 5914 5916 5918 5920 5922 5925 5926 5929 5930 5931 5933 5936 5937 5938 5939 5940 5941 5940
5850 5851 5851 5852 5854 5852 5852 5854 5854 5853 5855 5854 5854 5853 5855 5856 5863 5865 5868 5865 5873 5880 5881 5885 5888 5891 5892 5892 5896 5898 5901 5908 5912 5915 5918 5919 5921 5923 5925 5927 5928 5930 5933 5934 5935 5936 5937 5938 5938
Wind_Speed
6 6 9 4 6 9 15 5 6 6 9 10 7 8 7 5 8 5 6 7 4 8 7 8 7 8 3 7 12 14 14 12 19 19 16 13 10 11 9 8 9 11 11 11 11 15 16 13 16
8 9 10 7 2 3 7 3 8 11 11 14 10 8 9 10 7 6 4 5 3 7 9 11 10 11 13 8 10 18 21 19 19 19 17 17 11 10 9 9 9 11 11 10 12 16 13 16 17
8 6 8 8 2 5 6 4 7 9 9 10 11 10 8 7 6 6 5 4 3 9 8 9 12 14 13 10 11 19 20 18 13 14 14 13 11 10 9 11 11 11 11 9 14 17 19 17 18
7 7 4 18 7 5 4 8 8 8 12 11 9 4 3 5 9 9 6 5 5 8 9 9 12 12 14 13 10 11 14 15 14 14 13 10 10 11 12 12 13 13 15 16 20 18 19 18 19
9 8 11 14 8 10 6 5 5 5 4 4 11 5 7 4 9 9 8 8 6 8 9 10 11 12 12 12 13 14 14 13 12 13 12 11 10 11 11 12 13 18 20 17 17 18 19 18 20
6 8 16 13 17 17 6 4 1 0 7 8 12 10 7 4 8 7 9 10 6 8 9 10 11 11 12 13 12 13 14 15 15 14 13 12 11 10 10 13 16 21 20 17 16 17 18 19 22
6 12 9 8 22 24 16 3 5 2 4 10 11 12 9 6 4 10 10 10 8 8 9 10 11 12 12 12 13 13 13 14 15 16 14 12 10 10 12 12 18 20 20 17 17 18 18 19 22
10 7 9 15 9 19 8 3 3 3 6 6 9 11 10 8 4 7 7 9 7 8 7 9 10 10 12 13 12 14 16 16 17 17 14 12 11 11 14 15 16 19 16 16 17 17 18 22 22
9 11 9 14 9 8 0 7 7 2 3 5 9 10 10 8 5 4 3 6 6 7 7 9 11 11 13 13 13 14 14 15 17 17 15 13 11 12 15 14 14 15 17 16 15 16 22 22 19
7 8 10 12 6 6 8 15 7 3 3 5 3 10 7 7 6 2 3 4 8 5 2 10 10 11 10 13 15 15 16 16 16 15 15 14 14 16 20 21 21 20 19 18 18 21 24 20 17
5 10 9 9 12 14 11 14 4 3 1 1 6 5 9 8 8 4 6 5 4 6 9 12 8 11 11 12 15 17 17 18 17 16 15 15 15 16 21 21 19 18 19 20 22 25 23 18 16
2 3 4 7 11 14 8 16 5 9 5 5 8 6 7 5 7 4 6 4 4 7 5 6 5 10 12 13 16 17 16 17 18 17 17 16 17 18 20 19 18 17 16 19 22 24 23 19 15
15 11 2 2 6 13 16 6 5 7 2 1 12 10 4 6 4 3 3 3 4 4 2 7 3 7 11 14 15 13 15 18 17 17 17 15 16 15 17 15 17 19 18 20 22 23 21 20 15
3 7 9 5 5 7 11 10 2 7 7 13 9 9 7 6 7 4 4 2 2 3 3 4 5 9 11 14 15 13 20 18 17 17 16 16 16 15 16 17 18 19 20 23 24 24 21 19 16
7 2 7 4 6 8 6 4 2 7 12 7 4 6 8 7 3 2 1 0 2 5 8 8 5 9 12 16 18 15 22 19 16 16 17 18 20 17 14 16 15 16 18 21 23 25 23 18 16
6 4 4 6 13 10 8 8 8 12 8 6 2 6 8 7 4 1 2 3 5 7 5 11 12 12 16 19 18 18 19 19 17 17 17 17 18 16 15 14 15 15 16 19 20 20 20 18 15
4 3 3 2 7 3 8 8 8 13 7 6 2 3 5 2 5 3 1 5 8 7 11 13 13 14 11 15 17 18 18 17 17 17 16 15 17 16 14 13 15 17 18 19 19 18 17 16 12
15 15 11 3 3 5 5 3 7 9 6 7 2 3 2 7 6 2 2 4 10 7 10 13 15 12 11 12 16 16 17 17 16 15 17 15 18 18 16 15 14 15 16 18 18 16 14 10 10
11 9 12 7 7 3 1 3 5 7 5 2 3 4 4 6 10 3 5 4 8 8 8 11 12 12 13 10 13 15 15 16 16 16 15 14 19 19 18 15 13 13 14 14 13 12 10 9 9
21 11 8 8 9 4 13 8 4 1 3 2 5 8 5 9 10 6 8 6 7 10 11 11 10 10 10 11 12 15 18 17 16 15 15 16 17 19 19 18 15 19 15 13 10 10 10 10 9
18 7 6 9 9 9 4 5 4 6 4 2 5 9 11 14 10 9 9 6 10 12 13 13 15 11 9 9 8 9 13 14 15 15 15 16 17 18 20 20 17 14 15 7 12 9 9 11 8
11 14 10 18 9 15 20 11 7 6 3 4 5 7 13 5 12 11 11 10 12 10 11 13 14 15 11 10 9 10 12 13 14 15 15 18 18 17 17 21 20 18 9 13 10 9 8 9 7
18 19 16 15 8 12 23 23 12 10 7 6 10 9 15 19 13 15 15 14 13 12 13 11 13 14 12 10 11 10 9 9 11 13 13 14 17 17 20 23 21 15 17 11 11 9 9 9 9
20 16 11 14 18 12 11 14 10 17 18 17 15 11 12 17 24 18 22 18 13 11 12 11 11 13 12 11 10 11 11 10 9 9 11 14 16 18 18 19 20 18 16 12 12 10 11 11 8
21 25 25 20 18 16 16 19 12 13 15 14 16 11 12 13 15 18 18 16 13 11 14 13 12 14 12 11 11 10 11 11 10 10 10 10 10 13 19 19 18 16 11 14 11 10 11 10 11
20 32 25 17 16 16 16 22 20 18 18 19 20 11 13 13 13 14 18 26 19 17 16 14 13 15 15 14 12 11 12 12 10 10 11 11 12 13 16 16 18 17 15 16 11 11 9 11 13
9 20 15 16 20 21 16 15 18 22 22 19 22 22 17 18 21 19 16 22 23 17 19 17 17 17 15 15 12 11 13 13 12 11 11 12 13 13 13 13 15 16 17 17 16 14 13 13 12
9 14 15 18 21 22 22 17 13 18 23 24 22 23 23 23 25 27 25 23 23 23 21 18 20 23 20 17 17 13 12 14 14 15 14 13 13 14 15 15 14 16 17 17 15 14 14 16 14
10 15 16 19 22 25 25 20 18 20 16 23 27 27 29 28 31 33 29 26 23 24 23 20 21 24 23 22 21 19 17 15 15 16 14 15 15 15 15 15 14 14 15 16 15 13 14 14 13
9 14 18 19 19 25 26 28 25 26 25 23 27 31 31 33 34 37 34 34 30 27 29 25 25 25 27 26 26 24 23 21 18 18 16 17 16 17 18 18 16 16 17 16 14 14 14 15 15
Wind_Direction
126 136 133 134 121 70 98 78 60 56 47 41 67 57 71 95 75 79 82 83 99 110 108 107 93 97 136 188 184 179 168 162 165 165 161 156 142 132 127 122 116 114 109 113 116 115 115 110 106
146 165 140 132 65 126 70 354 334 40 55 49 57 81 72 65 69 84 67 70 136 108 107 96 100 86 86 133 161 172 166 158 163 171 169 164 141 135 132 126 124 120 122 129 119 127 121 114 113
178 189 194 156 222 28 47 32 332 25 58 64 33 46 56 76 62 75 95 70 159 111 102 94 95 93 83 92 178 173 167 136 149 159 165 161 161 141 142 138 130 131 132 141 138 132 126 121 113
182 184 216 187 182 134 105 356 2 25 17 83 58 51 77 80 83 97 17 97 114 117 112 104 95 97 93 105 120 133 133 136 143 144 149 138 131 142 138 131 128 116 125 124 136 125 120 114 111
173 201 194 179 120 129 113 32 11 347 40 70 78 55 61 65 85 106 104 96 109 122 123 118 112 113 119 112 120 130 140 138 137 137 138 140 146 145 139 133 122 119 129 122 130 125 119 113 119
197 192 186 190 190 159 190 75 345 269 31 63 76 66 73 60 97 88 100 89 118 131 129 136 137 133 124 128 131 135 139 135 132 128 130 134 132 134 139 136 123 134 139 134 134 126 120 120 126
314 209 217 195 157 175 176 301 337 358 98 32 67 61 67 39 106 102 100 100 118 124 132 143 151 146 139 134 137 147 141 132 126 125 126 123 129 140 148 144 136 136 135 145 138 125 120 127 127
312 89 207 235 134 130 195 263 302 23 182 10 41 54 52 65 17 59 100 100 113 116 128 145 152 159 152 147 147 142 135 130 129 124 116 124 127 135 145 154 145 150 138 147 135 128 132 137 130
76 71 27 236 184 226 214 259 257 241 33 357 63 74 61 53 73 54 141 119 126 115 133 155 153 154 160 159 156 153 142 139 140 136 127 124 124 144 152 153 147 155 152 140 134 135 140 136 136
8 54 51 49 47 318 293 244 279 49 53 359 25 71 44 58 73 105 99 100 115 88 151 152 154 152 167 168 165 157 149 149 148 144 136 126 118 126 138 142 143 141 143 142 134 137 137 139 134
57 31 24 15 16 329 261 200 111 83 311 29 92 38 47 47 50 21 95 78 110 120 100 156 151 158 176 174 166 163 159 154 152 144 141 135 139 137 138 142 142 143 141 140 140 139 140 142 139
49 146 7 10 27 3 193 171 52 52 118 33 37 6 40 43 71 90 114 118 102 93 105 133 129 181 176 180 172 166 162 163 152 146 149 151 142 143 148 141 138 137 138 140 139 143 148 143 151
34 39 125 313 54 45 106 82 61 25 3 18 5 341 10 49 46 47 80 99 125 106 159 157 229 208 172 176 179 169 171 171 157 154 149 153 152 152 157 151 148 146 144 145 145 153 152 151 149
82 82 106 8 21 71 58 66 84 330 339 259 321 329 331 43 38 23 43 276 157 114 170 90 166 164 167 179 173 173 178 165 161 160 157 156 160 162 161 162 161 155 151 154 154 159 161 162 159
202 280 67 130 50 31 30 356 343 305 325 270 288 331 325 340 296 55 269 263 175 132 139 112 155 141 168 180 165 161 168 163 163 167 163 164 169 165 163 163 157 155 155 162 162 166 170 166 173
228 34 330 342 48 73 21 4 4 5 13 58 307 327 333 334 320 78 258 194 155 147 159 124 130 140 169 169 163 155 164 163 162 170 169 168 162 162 174 162 157 156 160 169 172 177 172 176 179
203 159 256 249 7 90 61 33 25 41 351 18 358 338 327 275 297 314 270 150 128 127 143 148 145 144 176 164 164 159 159 168 168 170 161 168 163 171 170 162 173 165 172 172 180 185 189 191 185
211 194 212 42 257 145 81 47 52 36 328 73 27 314 252 297 274 318 260 132 135 139 145 143 140 142 151 150 166 165 164 168 172 169 166 166 172 176 177 167 176 171 180 176 183 194 205 198 208
237 225 220 233 173 266 341 86 76 80 74 331 340 272 248 225 279 319 272 253 152 132 145 150 154 147 159 169 161 168 172 174 180 176 166 170 173 178 182 171 182 174 187 190 188 186 203 215 233
221 211 241 225 208 255 254 242 282 313 66 265 307 317 277 239 261 217 214 207 174 164 158 137 155 160 159 162 173 176 182 184 191 183 185 177 173 180 191 182 185 188 198 200 193 182 210 221 239
228 211 223 250 235 210 234 235 275 238 230 264 281 285 277 285 236 224 223 197 197 179 157 162 156 149 148 142 145 170 196 185 176 176 186 182 176 186 187 191 188 201 195 190 193 189 212 224 245
203 250 229 231 235 261 261 236 248 283 250 259 247 241 268 279 215 237 240 199 213 197 176 170 157 143 147 140 141 168 180 186 183 180 181 180 187 192 194 190 192 186 190 195 192 198 208 229 242
216 220 249 260 257 253 262 264 250 226 230 250 236 233 240 257 257 218 217 233 221 203 208 183 163 150 154 160 155 154 152 170 170 175 180 183 178 189 195 199 196 199 197 201 201 204 215 229 244
226 246 255 265 267 240 260 265 206 210 223 215 232 260 218 244 255 246 204 223 214 216 211 207 174 157 161 165 166 161 158 171 172 179 181 188 190 191 208 203 199 208 201 203 214 215 221 228 235
217 226 237 249 240 229 235 245 238 225 232 241 248 245 225 237 223 195 192 208 216 210 229 215 195 173 170 166 162 161 164 177 184 172 180 183 186 190 206 215 212 205 205 208 213 221 228 240 259
208 215 236 247 223 223 238 245 252 242 232 233 229 236 225 198 193 192 200 218 219 211 216 218 211 194 178 171 178 180 167 176 168 176 178 174 176 187 200 204 203 219 224 227 230 238 240 242 249
224 220 208 217 225 234 237 241 248 247 239 236 219 234 228 228 201 199 190 194 203 223 213 215 209 202 194 182 179 192 189 184 177 177 174 176 179 189 201 203 212 211 221 226 233 239 244 248 250
209 204 229 246 245 242 245 244 254 257 260 235 229 242 229 229 231 209 193 192 205 215 225 211 218 209 198 200 185 194 209 206 201 196 198 195 197 189 205 210 215 222 231 241 243 244 243 246 246
241 250 254 255 264 262 256 258 264 263 269 248 244 238 234 229 231 223 200 189 196 210 220 223 224 224 206 205 202 196 204 221 221 214 208 214 210 212 208 210 218 225 227 231 239 240 246 252 264
246 257 266 271 287 279 273 266 262 270 292 274 255 259 236 235 227 217 217 194 206 207 211 228 223 223 219 212 209 210 204 210 225 230 226 229 220 226 223 220 224 227 232 233 234 244 249 257 261